Weather History for Seldovia, AK

Change the Weather History Date:

Tuesday, September 3, 2013

  Actual Average (PAHO) Record (PAHO)
Temperature  
Mean Temperature 56 °F -  
Max Temperature 60 °F 57 °F 66 °F (1979)
Min Temperature 51 °F 42 °F 34 °F (1948)
Degree Days  
Heating Degree Days 10    
Growing Degree Days 6 (Base 50)    
Moisture  
Dew Point 49 °F    
Average Humidity 81    
Maximum Humidity 94    
Minimum Humidity 62    
Precipitation  
Precipitation 0.11 in - - ()
Sea Level Pressure  
Sea Level Pressure 29.36 in    
Wind  
Wind Speed 8 mph (South)    
Max Wind Speed 13 mph    
Max Gust Speed 24 mph    
Visibility 9 miles    
Events Rain    
Averages and records for this station are not official NWS values.
T = Trace of Precipitation, MM = Missing Value Source: NWS Daily Summary

Daily Weather History Graph

Daily Weather History Graph

Search for Another Location

Airport:

Trip Planner

Search our weather history database for the weather conditions in past years. The results will help you decide how hot, cold, wet, or windy it might be!

Date:

Astronomy

Sep. 03, 2013 Rise Set
Actual Time 7:08 AM AKDT 9:01 PM AKDT
Civil Twilight 6:25 AM AKDT 9:44 PM AKDT
Nautical Twilight 5:29 AM AKDT 10:39 PM AKDT
Astronomical Twilight 4:20 AM AKDT 11:47 PM AKDT
Moon 5:22 AM AKDT (9/3) 7:56 PM AKDT (9/3)
Length of Visible Light 15h 19m
Length of Day
13h 52m
Waning Crescent, 3% of the Moon is Illuminated
Sep 3
Waning Crescent
Sep 5
New
Sep 12
First Quarter
Sep 19
Full
Sep 26
Last Quarter

Hourly Weather History & Observations

Time (AKDT) Temp. Dew Point Humidity Pressure Visibility Wind Dir Wind Speed Gust Speed Precip Events Conditions
12:53 AM 55.9 °F 46.9 °F 72% 29.46 in 10.0 mi South 11.5 mph 16.1 mph N/A   Overcast
1:53 AM 55.9 °F 46.9 °F 72% 29.42 in 10.0 mi South 11.5 mph 20.7 mph N/A   Partly Cloudy
2:53 AM 57.0 °F 46.9 °F 69% 29.38 in 10.0 mi Variable 3.5 mph 16.1 mph N/A   Partly Cloudy
3:53 AM 55.9 °F 48.0 °F 75% 29.37 in 10.0 mi Variable 4.6 mph - N/A   Mostly Cloudy
4:53 AM 54.0 °F 48.9 °F 83% 29.35 in 10.0 mi Variable 5.8 mph - 0.00 in Rain Light Rain
5:53 AM 55.0 °F 50.0 °F 83% 29.31 in 10.0 mi SSE 9.2 mph 18.4 mph 0.01 in Rain Light Rain
6:53 AM 55.0 °F 50.0 °F 83% 29.30 in 10.0 mi SSE 8.1 mph - 0.00 in   Mostly Cloudy
7:42 AM 53.6 °F 51.8 °F 94% 29.29 in 10.0 mi South 3.5 mph - 0.01 in   Mostly Cloudy
7:53 AM 54.0 °F 51.1 °F 90% 29.30 in 10.0 mi Variable 5.8 mph - 0.01 in   Mostly Cloudy
8:17 AM 53.6 °F 51.8 °F 94% 29.30 in 5.0 mi South 9.2 mph - 0.00 in Rain Light Rain
8:49 AM 55.4 °F 53.6 °F 94% 29.31 in 2.0 mi South 4.6 mph - 0.02 in Rain Light Rain
8:53 AM 55.0 °F 53.1 °F 93% 29.31 in 1.5 mi South 6.9 mph - 0.03 in Rain Light Rain
9:06 AM 53.6 °F 51.8 °F 94% 29.31 in 3.0 mi South 11.5 mph 19.6 mph 0.00 in Rain Light Rain
9:14 AM 53.6 °F 50.0 °F 88% 29.31 in 8.0 mi South 9.2 mph 18.4 mph 0.00 in Rain Light Rain
9:53 AM 54.0 °F 48.9 °F 83% 29.33 in 10.0 mi South 6.9 mph - 0.00 in   Mostly Cloudy
10:01 AM 53.6 °F 48.2 °F 82% 29.33 in 10.0 mi South 5.8 mph - N/A   Overcast
10:31 AM 53.6 °F 48.2 °F 82% 29.33 in 10.0 mi South 6.9 mph - N/A   Overcast
10:53 AM 54.0 °F 48.9 °F 83% 29.34 in 10.0 mi SSE 6.9 mph - 0.00 in   Overcast
11:53 AM 55.0 °F 50.0 °F 83% 29.35 in 10.0 mi South 6.9 mph - N/A   Clear
12:53 PM 60.1 °F 48.0 °F 64% 29.36 in 10.0 mi South 9.2 mph 18.4 mph N/A   Mostly Cloudy
1:53 PM 60.1 °F 46.9 °F 62% 29.36 in 10.0 mi South 12.7 mph 24.2 mph N/A   Clear
2:53 PM 59.0 °F 46.9 °F 64% 29.38 in 10.0 mi South 11.5 mph 24.2 mph N/A   Partly Cloudy
3:53 PM 57.9 °F 48.9 °F 72% 29.39 in 10.0 mi Variable 6.9 mph 16.1 mph 0.00 in   Overcast
4:53 PM 57.0 °F 48.9 °F 74% 29.37 in 10.0 mi South 10.4 mph 17.3 mph 0.00 in   Overcast
5:53 PM 57.0 °F 48.9 °F 74% 29.38 in 10.0 mi South 9.2 mph 16.1 mph 0.00 in   Overcast
6:53 PM 55.9 °F 46.9 °F 72% 29.38 in 10.0 mi South 8.1 mph - N/A   Overcast
7:53 PM 55.0 °F 48.0 °F 77% 29.39 in 10.0 mi Variable 6.9 mph - 0.00 in   Overcast
8:53 PM 53.1 °F 50.0 °F 89% 29.40 in 5.0 mi South 4.6 mph - 0.01 in Rain Light Rain
9:53 PM 52.0 °F 48.9 °F 89% 29.40 in 7.0 mi South 6.9 mph - 0.04 in Rain Light Rain
10:53 PM 52.0 °F 48.9 °F 89% 29.40 in 8.0 mi South 8.1 mph - 0.00 in Rain Light Rain
11:15 PM 51.8 °F 48.2 °F 88% 29.40 in 10.0 mi South 5.8 mph - 0.01 in Rain Light Rain
11:38 PM 53.6 °F 48.2 °F 82% 29.40 in 10.0 mi Variable 4.6 mph - 0.01 in Rain Light Rain
11:53 PM 52.0 °F 48.9 °F 89% 29.40 in 8.0 mi SSW 3.5 mph - 0.01 in Rain Light Rain